EW5383 Weather Reports


Display with metric or nautical units.
time (UTC)temp
F
wind
direction
speed
MPH
gust
MPH
rain 1hr
in
rain 24hr
in
rain mn
in
humidity
%
barometer
mb
20260508063035 0 0.0 0.0 0.00 0.00 0.00 1014.1
20260508061530 0 0.0 0.0 0.00 0.00 0.00 1014.3
20260508060033 0 0.0 0.0 0.00 0.00 0.00 1014.2
20260508054529 0 0.0 0.0 0.00 0.00 0.00 1014.6
20260508053018 0 0.0 0.0 0.00 0.00 0.00 1014.6
20260508051513 0 0.0 0.0 0.00 0.00 0.00 1014.6
20260508050009 0 0.0 0.0 0.00 0.00 0.00 1014.6
20260508044505 0 0.0 0.0 0.00 0.00 0.00 1014.7
20260508043101 0 0.0 0.0 0.00 0.00 0.00 1014.7
20260508041556 0 0.0 0.0 0.00 0.00 0.00 1014.8
20260508040057 72 51 0.0 0.0 0.00 0.00 0.00 1 1014.9
20260508034550 73 52 0.0 0.0 0.00 0.00 0.00 1 1015.1
20260508033111 74 51 0.0 0.0 0.00 0.00 0.00 1 1015.0
20260508031549 74 51 0.0 0.0 0.00 0.00 0.00 1 1014.9
20260508030100 74 51 0.0 0.0 0.00 0.00 0.00 1 1014.9
20260508024554 74 51 0.0 0.0 0.00 0.00 0.00 1 1014.8
20260508023042 75 51 0.0 0.0 0.00 0.00 0.00 1 1014.8
20260508021542 75 52 0.0 0.0 0.00 0.00 0.00 1 1014.8
20260508020100 76 51 0.0 0.0 0.00 0.00 0.00 1 1014.8
20260508014540 76 51 0.0 0.0 0.00 0.00 0.00 1 1014.7
20260508013037 76 51 0.0 0.0 0.00 0.00 0.00 1 1014.7
20260508011542 77 51 0.0 0.0 0.00 0.00 0.00 1 1014.5
20260508010036 77 51 0.0 0.0 0.00 0.00 0.00 1 1014.5
20260508004532 77 51 0.0 0.0 0.00 0.00 0.00 9 1014.5
20260508003024 77 51 0.0 0.0 0.00 0.00 0.00 41 1014.5
20260508001537 78 51 0.0 0.0 0.00 0.00 0.00 55 1014.4
20260508000015 79 51 0.0 0.0 0.00 0.00 0.00 61 1014.3
20260507234512 80 86 0.0 0.0 0.00 0.00 0.00 63 1014.3
20260507233019 81 111 0.0 0.0 0.00 0.00 0.00 64 1014.3
20260507231507 83 32 0.0 0.0 0.00 0.00 0.00 63 1014.3
20260507230058 83 49 0.0 0.0 0.00 0.00 0.00 61 1014.1
20260507224554 84 36 0.0 0.0 0.00 0.00 0.00 60 1014.2
20260507223050 86 89 0.0 0.0 0.00 0.00 0.00 55 1014.2
20260507221545 88 176 0.0 0.0 0.00 0.00 0.00 52 1014.2
20260507220040 89 22 0.0 0.0 0.00 0.00 0.00 50 1014.2
20260507214539 90 32 0.0 1.0 0.00 0.00 0.00 50 1014.1
20260507213040 90 338 0.0 0.0 0.00 0.00 0.00 45 1014.2
20260507211542 91 244 0.0 0.0 0.00 0.00 0.00 47 1014.3
20260507210023 91 28 0.0 1.0 0.00 0.00 0.00 47 1014.4
20260507204518 91 51 0.0 0.0 0.00 0.00 0.00 46 1014.4
20260507203014 91 53 0.0 1.0 0.00 0.00 0.00 46 1014.6
20260507201518 91 61 0.0 1.0 0.00 0.00 0.00 49 1014.5
20260507200006 92 58 0.0 1.0 0.00 0.00 0.00 50 1014.6
20260507194502 92 213 0.0 1.0 0.00 0.00 0.00 45 1014.7
20260507193059 92 44 0.0 1.0 0.00 0.00 0.00 44 1014.8
20260507191559 92 80 0.0 0.0 0.00 0.00 0.00 44 1014.8
20260507190049 93 341 0.0 2.0 0.00 0.00 0.00 46 1015.1
20260507184543 92 206 0.0 0.0 0.00 0.00 0.00 49 1015.4
20260507183050 92 1 0.0 0.0 0.00 0.00 0.00 51 1015.7
20260507181536 92 320 0.0 0.0 0.00 0.00 0.00 50 1015.8
20260507180045 92 197 0.0 2.0 0.00 0.00 0.00 51 1016.1
20260507174526 91 292 0.0 1.0 0.00 0.00 0.00 53 1016.2
20260507173027 91 30 0.0 1.0 0.00 0.00 0.00 54 1016.3
20260507171518 90 269 0.0 1.0 0.00 0.00 0.00 56 1016.3
20260507170030 90 197 0.0 0.0 0.00 0.00 0.00 53 1016.4
20260507164509 90 55 0.0 1.0 0.00 0.00 0.00 56 1016.5
20260507163004 90 277 0.0 1.0 0.00 0.00 0.00 58 1016.6
20260507161606 89 27 0.0 2.0 0.00 0.00 0.00 58 1016.6
20260507160056 89 14 0.0 1.0 0.00 0.00 0.00 58 1016.8
20260507154554 89 259 0.0 1.0 0.00 0.00 0.00 59 1016.7
20260507153100 88 226 0.0 2.0 0.00 0.00 0.00 61 1016.8
20260507151542 87 271 0.0 1.0 0.00 0.00 0.00 61 1016.8
20260507150037 87 252 0.0 1.0 0.00 0.00 0.00 61 1016.8
20260507144534 87 240 0.0 0.0 0.00 0.00 0.00 60 1016.7
20260507143029 86 200 0.0 1.0 0.00 0.00 0.00 60 1016.6
20260507141526 86 114 0.0 1.0 0.00 0.00 0.00 59 1016.6
20260507140020 86 4 0.0 0.0 0.00 0.00 0.00 56 1016.6
20260507134515 85 90 0.0 0.0 0.00 0.00 0.00 44 1016.5
20260507133012 84 213 0.0 0.0 0.00 0.00 0.00 30 1016.4
20260507131508 83 224 0.0 0.0 0.00 0.00 0.00 6 1016.2
20260507130002 83 90 0.0 0.0 0.00 0.00 0.00 1 1016.3
20260507124601 82 87 0.0 0.0 0.00 0.00 0.00 1 1016.1
20260507123056 80 85 0.0 0.0 0.00 0.00 0.00 1 1016.0
20260507121555 77 86 0.0 0.0 0.00 0.00 0.00 1 1016.0
20260507120043 74 85 0.0 0.0 0.00 0.00 0.00 1 1016.0
20260507114539 71 85 0.0 0.0 0.00 0.00 0.00 1 1015.9
20260507113035 69 85 0.0 0.0 0.00 0.00 0.00 1 1015.9
20260507111530 0 0.0 0.0 0.00 0.00 0.00 1015.6
20260507110026 0 0.0 0.0 0.00 0.00 0.00 1015.6
20260507104522 0 0.0 0.0 0.00 0.00 0.00 1015.6
20260507103017 0 0.0 0.0 0.00 0.00 0.00 1015.4
20260507101513 0 0.0 0.0 0.00 0.00 0.00 1015.3
20260507100014 0 0.0 0.0 0.00 0.00 0.00 1015.1
20260507094605 0 0.0 0.0 0.00 0.00 0.00 1015.0
20260507093103 0 0.0 0.0 0.00 0.00 0.00 1015.1
20260507091556 0 0.0 0.0 0.00 0.00 0.00 1015.1
20260507090057 0 0.0 0.0 0.00 0.00 0.00 1014.8
20260507084549 0 0.0 0.0 0.00 0.00 0.00 1014.5
20260507083045 0 0.0 0.0 0.00 0.00 0.00 1014.3
20260507081539 0 0.0 0.0 0.00 0.00 0.00 1014.4
20260507080035 0 0.0 0.0 0.00 0.00 0.00 1014.4
20260507074530 0 0.0 0.0 0.00 0.00 0.00 1014.3
20260507073025 0 0.0 0.0 0.00 0.00 0.00 1014.2
20260507071525 0 0.0 0.0 0.00 0.00 0.00 1014.2
20260507070018 0 0.0 0.0 0.00 0.00 0.00 1014.5
20260507064513 0 0.0 0.0 0.00 0.00 0.00 1014.7